Погода в Мариуполе

Поиск расширенной информации на нашем сайте:

Полезная информация:

Новости сайта



02.01.2020
Опубликован Долгосрочный прогноз погоды по городам России и ближнего зарубежья на январь 2020 года.
Карты: Прогноз на январь и февраль 2020 года, Сравнение прогнозируемой аномалии приземной температуры воздуха на январь 2020 года по разным моделям.




Погода в Мариуполе - сегодня

Время (UTC), дата Ветер
(°,м/с) 
Видим.   Явления Облачность Т
(°С)
Тd
(°С)
f(%) Тe
(°С)
Pmin
(гПа)
dP
(гПа)
Po
(мм)
O2
(г/м3)
Тmin Tmax R s Состояние
почвы
09 04.06.20 180 (Ю) 20000 м    6/4 1000 м верхняя 
[Cu hum|Ci fib]
+18.4 +9.7 57 +19  1011.4  0.6  752  282         
12 04.06.20 190 (Ю) 20000 м    9/3 600 м верхняя 
[Cu med, cong|Cs]
+17.7 +10.8 64 +20  1012.4  753  283         
15 04.06.20 200 (Ю) 20000 м    9/0 средняя, верхняя 
[Ac trans|Cs]
+17.3 +11.2 67 +21  1012.4  753  283           
18 04.06.20 230 (ЮЗ) 20000 м    8/0 средняя, верхняя 
[Ac trans|Cs]
+15.9 +11.6 76 +20  1013.5  1.1  754  285    +19.1      мокрая 
21 04.06.20 230 (ЮЗ) 20000 м    3/0 средняя 
[Ac trans]
+14.9 +12.9 88 +20  1014.3  0.7  755  286           
00 05.06.20 240 (ЮЗ) 20000 м    3/0 средняя 
[Ac trans]
+14.8 +12.4 86 +19  1015.3  755  286           
03 05.06.20 170 (Ю) 20000 м    1/1 1000 м 
[Cu hum]
+16.2 +14.3 89 +23  1015.6  0.4  756  284           
06 05.06.20 200 (Ю) 20000 м    3/3 600 м 
[Cu med, cong]
+19.3 +16.1 82 +30  1016.3  0.7  756  281  +14.6         
09 05.06.20 180 (Ю) 20000 м    6/3 600 м верхняя 
[Cu hum|Cc]
+20 +14.5 71 +28  1017.6  1.3  757  281           
12 05.06.20 180 (Ю) 20000 м    6/1 600 м верхняя 
[Cu hum|Cc]
+19.8 +15 74 +28  1017.6  757  281           
15 05.06.20 180 (Ю) 20000 м    4/0 верхняя 
[Ci fib]
+19.5 +15.4 77 +29  1016.8  -0.8  756  281           
18 05.06.20 180 (Ю) 20000 м    8/0 верхняя 
[Cc]
+18.2 +16.5 90 +30  1017.2  0.4  757  282    +20.5      мокрая 
21 05.06.20 200 (Ю) 20000 м    8/0 верхняя 
[Cs]
+17.8 +16.8 94 +30  1017.4  0.2  757  283           
00 06.06.20 200 (Ю) 20000 м    6/0 верхняя 
[Cs]
+17.2 +16.5 96 +28  1017.4  757  283        598   
03 06.06.20 180 (Ю) 10 км    8/4 600 м верхняя 
[Sc|Cc]
+17.9 +17.2 96 +30  1018.1  0.7  757  283           
06 06.06.20 150 (ЮВ) 20000 м    4/0 верхняя 
[Ci]
+20.1 +16.6 80 +31  1018.9  0.8  758  281  +16.5         
09 06.06.20 160 (Ю) 20000 м    1/0 верхняя 
[Ci fib]
+21.6 +12.8 57 +26  1019.1  0.3  758  281        598   
12 06.06.20 180 (Ю) 20000 м    1/0 верхняя 
[Ci fib]
+22.2 +11.9 52 +26  1018.5  -0.6  758  280        598   
15 06.06.20 110 (В) 20000 м    3/0 верхняя 
[Ci fib]
+22.1 +10.8 49 +24  1017.4  -1.1  757  280      360     
18 06.06.20 тихо ()   20000 м    4/0 верхняя 
[Cs]
+20.5 +7.4 43 +21  1016.8  -0.7  756  282          полностью
покрыта
пылью 
21 06.06.20 350 (С) 10 км    ясно 
+16.2 +9 62 +17  1016.7  -0.2  756  286           
00 07.06.20 030 (СВ) 10 км    ясно верхняя 
[Sc|Cs]
+16.2 +8.1 59 +17    -0.4             
03 07.06.20 050 (СВ) 10 км    ясно 
+18.6 +10.4 59 +19  1016  -0.2             
06 07.06.20 090 (В) 10 км    ясно 
+22 +14.5 62 +30  1015.8  -0.1  756  279  +14.3        мокрая 
09 07.06.20 100 (В) 20000 м    ясно 
+24.1 +16.8 64 +36  1015.4  -0.3  756  276           
Время (UTC), дата Ветер
(°,м/с) 
Видим.   Явления Облачность Т
(°С)
Тd
(°С)
f(%) Тe
(°С)
Pmin
(гПа)
dP
(гПа)
Po
(мм)
O2
(г/м3)
Тmin Tmax R s Состояние
почвы

Для получения пояснительной информации подведите курсор к названию столбца.

ПОГОДА в Мариуполе - архив

Всё, что Вы хотите узнать о погоде в Мариуполе - удобно и подробно!

Выберите нужную дату (начиная с 1 января 2019* года) и нажмите кнопку "Найти".
Будут отображены архивные сводки погоды по пункту Мариуполь, начиная с указанной даты.


Отображать данные в формате CSV (для использования в таблицах Excel)


Внимание! Наш архив погоды предназначен исключительно для личного некоммерческого использования в познавательных целях. Если Вам необходимы официальные справки о состоянии погоды (для производственных, юридических, коммерческих и т.п. целей), обращайтесь в органы Росгидромета.

*Примечание: данная дата относится к архиву по метеостанциям СССР (Россия, СНГ, Балтия).
Архив по метеостанциям Зарубежной Европы и Азии (кроме Китая) хранится 10 дней, по другим регионам земного шара (Китай, Африка, Америка, Австралия, Океания) - 1 день.

Мариуполь - район местоположения метеостанции


Название, широта, долгота, высота метеостанции:
Мариуполь (город) 47°ш. 37.5°д. 70 м над ур. моря [Украина]

Дополнительная информация

В oтличие oт бoльшинства пoгoдных сайтoв мы публикуем пoдрoбную метеoинфoрмацию в детальнoм прoфессиoнальнoм фoрмате.

Характеристики температуры и влажнoсти вoздуха измеряются на высoте 2 м в тени вдали oт зданий и деревьев.
Скoрoсть ветра измеряется на высoте 10 м (на урoвне рoста челoвека скoрoсть ветра ниже в 1.5-2 раза). Если метеoстанция нахoдится в гoрoде или в лесу, тo скoрoсть ветра занижена на 2-4 м/с пo сравнению с oткрытым местoм. Скoрoсть ветра над акватoриями крупных рек и oзёр, а также на вершинах хoлмoв на 2-5 м/с выше, чем в oбычных услoвиях.
Атмoсфернoе давление в разных тoчках местнoсти мoжет значительнo oтличаться oт давления на метеoстанции, в зависимoсти oт услoвий рельефа (при пoдъёме на 10 м давление пoнижается примернo на 1 мм рт.ст.).